[[{"header":{"parameterUnit":"m.s-1","parameterCategory":2,"la1":30.2991,"la2":30.254,"lo1":-89.0895,"lo2":-89.0444,"dy":0.0017,"dx":0.0017,"nx":28,"ny":28,"refTime":"2025-07-30T21:00:00:Z","depth":"0","parameterNumber":2,"parameterNumberName":"U-component_of_CURRENTS"},"data":[0,0,0,0,0,0,0,0,0,0,0,0,0,0,0,0,0,0,0,0,0,0,0,0,0,0,0,0,0,0,0,0,0,0,0,0,0,0,0,0,0,0,0,0,0,0,0,0,0,0,0,0,0,0,0,0,0,0,0.2622,0.2623,0,0.2664,0.2665,0.2665,0.2666,0.2665,0.2665,0.2664,0.2668,0.2668,0.2669,0,0,0,0,0,0,0,0,0,0,0,0,0,0.2604,0.2604,0.2622,0.2623,0.2623,0.2664,0.2665,0.2666,0.2666,0.2665,0.2665,0.2664,0.2667,0.2668,0.2669,0,0,0,0,0,0,0,0,0,0,0,0,0,0.2625,0.2604,0.2622,0.2628,0.2629,0.2664,0.2665,0.2666,0.2666,0.2665,0.2664,0.2664,0.2667,0.2668,0.2669,0.2691,0,0,0.2672,0.2672,0,0,0,0,0,0,0,0,0.2624,0.2626,0.2627,0.2628,0.2629,0.2659,0.266,0.2672,0.2666,0.2652,0.2664,0.2663,0.2662,0.2663,0.2673,0.2691,0.2691,0.2672,0.2672,0.2673,0.2673,0,0,0,0,0,0,0,0.2622,0.2624,0.2639,0.2628,0.2629,0.265,0.2652,0.2662,0.266,0.2653,0.2653,0.2658,0.2662,0.2673,0.2673,0.2691,0.2672,0.2673,0.2673,0.2673,0.2813,0.2816,0,0,0,0,0,0,0.2615,0.2623,0.2638,0.264,0.2624,0.2651,0.2653,0.265,0.2661,0.2662,0.2659,0.2658,0.2671,0.2672,0.2673,0.2748,0.2673,0.2674,0.2674,0.281,0.2813,0.2817,0,0,0,0,0,0,0.2614,0.2615,0.2636,0.2633,0.2637,0.2652,0.2649,0.2652,0.2668,0.2666,0.2666,0.2673,0.2671,0.2672,0.2707,0.2746,0.2674,0.2675,0.2806,0.2811,0.2815,0.2867,0,0,0,0,0,0,0.2613,0.2615,0.2611,0.2632,0.2637,0.2659,0.265,0.2653,0.2671,0.2671,0.2678,0.2677,0.267,0.2706,0.2708,0.2746,0.2675,0.2802,0.2808,0.2814,0.2861,0.2873,0.2883,0,0,0,0,0,0.2612,0.2603,0.261,0.2612,0.263,0.266,0.2664,0.2672,0.2673,0.2683,0.2703,0.2677,0.2746,0.2709,0.2711,0.275,0.2799,0.2806,0.2813,0.2856,0.287,0.2882,0,0,0,0,0,0,0.2595,0.2603,0.2611,0.2606,0.2635,0.2659,0.2662,0.2681,0.2706,0.2701,0.2706,0.2708,0.2759,0.2755,0.2715,0.2815,0.2773,0.2781,0.2806,0.2819,0.2829,0.2806,0.2676,0,0,0,0,0,0.259,0.2586,0.261,0.2612,0.2618,0.2646,0.2659,0.2671,0.2696,0.2705,0.2721,0.2748,0.2792,0.2803,0.283,0.2872,0.2887,0.2906,0.2917,0.2926,0.2913,0.2986,0.3001,0.284,0.284,0.284,0,0,0.259,0.2591,0.2593,0.2609,0.2624,0.2655,0.2651,0.267,0.2713,0.2702,0.2756,0.2781,0.2815,0.2871,0.2894,0.2868,0.2988,0.2935,0.2941,0.2924,0.2995,0.301,0.3024,0.2845,0.2844,0.2843,0,0,0.2592,0.2582,0.2585,0.2607,0.263,0.2654,0.2664,0.2699,0.2724,0.2783,0.2802,0.2849,0.2902,0.2938,0.2964,0.3052,0.3046,0.3072,0.3096,0.3169,0.3182,0.3193,0.3256,0.3273,0.3072,0.3072,0.3072,0,0.2597,0.2599,0.2596,0.2613,0.2635,0.2659,0.2689,0.2727,0.278,0.2809,0.2805,0.2918,0.2938,0.3023,0.3057,0.3073,0.3109,0.3037,0.318,0.3191,0.3201,0.3263,0.3281,0.3075,0.3075,0.3075,0.3074,0,0.2612,0.2618,0.262,0.2652,0.2679,0.2702,0.2752,0.2792,0.2828,0.2869,0.2953,0.2993,0.3054,0.3087,0.3096,0.3193,0.3195,0.3186,0.3135,0.322,0.3281,0.3298,0.308,0.3079,0.3078,0.3077,0,0,0.2619,0.263,0.2634,0.265,0.2698,0.2722,0.2792,0.2861,0.2906,0.2967,0.3034,0.3122,0.313,0.3162,0.3188,0.3246,0.3364,0.3245,0.3247,0.3287,0.3527,0.3546,0.3566,0.338,0.3383,0.3385,0.3547,0,0.264,0.2665,0.2675,0.2725,0.2742,0.2784,0.2847,0.2912,0.2968,0.3037,0.3095,0.3163,0.3167,0.3195,0.326,0.3332,0.3408,0.332,0.3455,0.3459,0.3449,0.3587,0.3525,0.3666,0.3563,0.3566,0.3568,0,0.2655,0.2668,0.2703,0.2748,0.276,0.2799,0.2884,0.2941,0.3037,0.308,0.3148,0.3193,0.329,0.3277,0.3442,0.3387,0.3463,0.3516,0.3524,0.3526,0.351,0.3563,0.37,0.3525,0.3594,0.3592,0.359,0,0.2649,0.269,0.2713,0.273,0.2788,0.2817,0.2857,0.2946,0.2987,0.3095,0.3133,0.3252,0.3303,0.342,0.3533,0.3499,0.3711,0.3679,0.3774,0.3776,0.374,0.3734,0.37,0.3813,0.3812,0.3812,0.3811,0,0.2658,0.2675,0.2704,0.2714,0.275,0.2797,0.2843,0.2906,0.2982,0.3027,0.3135,0.3194,0.334,0.347,0.357,0.3737,0.3753,0.3807,0.3833,0.3761,0.3755,0.3611,0.3509,0.3818,0.3817,0.3815,0.3814,0,0.2629,0.2656,0.2673,0.272,0.2735,0.2752,0.2801,0.2833,0.2919,0.298,0.3013,0.3168,0.335,0.3514,0.3715,0.3781,0.3833,0.3993,0.3897,0.3909,0.381,0.3714,0.3624,0.3531,0.4124,0.4125,0.4127,0,0.2613,0.2614,0.2647,0.2647,0.2656,0.2684,0.27,0.2785,0.2813,0.2957,0.2981,0.318,0.3335,0.3653,0.3833,0.4064,0.389,0.4097,0.4022,0.3822,0.3735,0.355,0.3462,0.4007,0.4007,0.4007,0.4007,0,0.2564,0.2569,0.2577,0.2566,0.2574,0.2589,0.2616,0.2638,0.2739,0.2824,0.2956,0.3102,0.3434,0.3641,0.3937,0.4071,0.3873,0.4109,0.3931,0.3674,0.3442,0.3357,0.3866,0.401,0.4009,0.4009,0.4009,0.4009,0.2507,0.2494,0.2484,0.2464,0.2475,0.247,0.2466,0.2527,0.2589,0.2699,0.2875,0.3062,0.3368,0.3797,0.3923,0.3998,0.3914,0.3905,0.3822,0.3665,0.3509,0.4024,0.4171,0.4171,0.4172,0.4173,0.4173,0,0.2405,0.239,0.2376,0.2349,0.2314,0.2355,0.2385,0.2385,0.2442,0.2602,0.275,0.3021,0.3286,0.3535,0.3747,0.3683,0.358,0.3574,0.3269,0.3213,0.3719,0.3646,0.3648,0.3648,0.3648,0.3649,0.3649,0.3649,0.2346,0.2292,0.2278,0.218,0.2164,0.2122,0.2131,0.2179,0.2273,0.2401,0.2527,0.2692,0.2967,0.3195,0.325,0.3268,0.2987,0.2929,0.2833,0.3143,0.3164,0.3184,0.3089,0.2975,0.2975,0.2256,0.225,0.2245]},{"header":{"parameterUnit":"m.s-1","parameterCategory":2,"la1":30.2991,"la2":30.254,"lo1":-89.0895,"lo2":-89.0444,"dy":0.0017,"dx":0.0017,"nx":28,"ny":28,"refTime":"2025-07-30T21:00:00:Z","depth":"0","parameterNumber":3,"parameterNumberName":"V-component_of_CURRENTS"},"data":[0,0,0,0,0,0,0,0,0,0,0,0,0,0,0,0,0,0,0,0,0,0,0,0,0,0,0,0,0,0,0,0,0,0,0,0,0,0,0,0,0,0,0,0,0,0,0,0,0,0,0,0,0,0,0,0,0,0,-0.0518,-0.0517,0,-0.0485,-0.0485,-0.0485,-0.0519,-0.052,-0.0521,-0.0521,-0.0598,-0.06,-0.0601,0,0,0,0,0,0,0,0,0,0,0,0,0,-0.0605,-0.0604,-0.0518,-0.0517,-0.0516,-0.0485,-0.0485,-0.0485,-0.0519,-0.052,-0.0521,-0.0522,-0.0598,-0.0599,-0.0601,0,0,0,0,0,0,0,0,0,0,0,0,0,-0.0575,-0.0604,-0.0518,-0.0525,-0.0525,-0.0485,-0.0485,-0.0485,-0.0519,-0.052,-0.0521,-0.0522,-0.0597,-0.0599,-0.0601,-0.0589,0,0,-0.0607,-0.0608,0,0,0,0,0,0,0,0,-0.0577,-0.0572,-0.0525,-0.0525,-0.0524,-0.0502,-0.0544,-0.0524,-0.0518,-0.0527,-0.0521,-0.0523,-0.0572,-0.0576,-0.0574,-0.0593,-0.0596,-0.0607,-0.0608,-0.0609,-0.061,0,0,0,0,0,0,0,-0.0579,-0.0574,-0.0511,-0.0524,-0.0523,-0.0528,-0.0525,-0.054,-0.055,-0.0526,-0.0527,-0.0514,-0.0573,-0.0572,-0.0576,-0.0597,-0.0607,-0.0609,-0.061,-0.0611,-0.0627,-0.0627,0,0,0,0,0,0,-0.057,-0.0576,-0.0512,-0.0509,-0.0547,-0.0525,-0.0522,-0.0513,-0.0547,-0.0551,-0.0513,-0.0516,-0.0568,-0.0574,-0.0579,-0.0562,-0.0609,-0.0611,-0.0612,-0.0628,-0.0627,-0.0627,0,0,0,0,0,0,-0.0572,-0.0565,-0.0513,-0.0537,-0.053,-0.0521,-0.0511,-0.0511,-0.0507,-0.0535,-0.0542,-0.0507,-0.0569,-0.0576,-0.0594,-0.0565,-0.0612,-0.0614,-0.0629,-0.0628,-0.0627,-0.0531,0,0,0,0,0,0,-0.0575,-0.0566,-0.0557,-0.0536,-0.0528,-0.0475,-0.0509,-0.051,-0.0494,-0.0497,-0.0532,-0.054,-0.057,-0.0591,-0.0596,-0.0569,-0.0615,-0.063,-0.0629,-0.0627,-0.0535,-0.0527,-0.052,0,0,0,0,0,-0.0578,-0.0552,-0.0557,-0.0548,-0.0516,-0.0472,-0.0469,-0.0471,-0.0492,-0.0476,-0.0514,-0.0539,-0.0586,-0.0592,-0.0598,-0.0571,-0.0631,-0.0629,-0.0627,-0.0539,-0.0529,-0.052,0,0,0,0,0,0,-0.0577,-0.0552,-0.0557,-0.0523,-0.0495,-0.0476,-0.0455,-0.0462,-0.0476,-0.0487,-0.0531,-0.0541,-0.0547,-0.0574,-0.0579,-0.0573,-0.0611,-0.0611,-0.0542,-0.0533,-0.0525,-0.0501,-0.0617,0,0,0,0,0,-0.0573,-0.0553,-0.0525,-0.0496,-0.0479,-0.0469,-0.0453,-0.0452,-0.0456,-0.0463,-0.049,-0.0522,-0.0543,-0.0551,-0.0575,-0.0567,-0.0586,-0.0555,-0.0547,-0.054,-0.0526,-0.0533,-0.0524,-0.0621,-0.0621,-0.0621,0,0,-0.0563,-0.0546,-0.0534,-0.0495,-0.0477,-0.0437,-0.0464,-0.0428,-0.0405,-0.047,-0.0462,-0.0498,-0.0538,-0.0535,-0.0538,-0.0553,-0.0522,-0.0538,-0.0532,-0.0521,-0.053,-0.052,-0.0512,-0.062,-0.062,-0.062,0,0,-0.0524,-0.0517,-0.0485,-0.0457,-0.0418,-0.0408,-0.0394,-0.0373,-0.0376,-0.0368,-0.0414,-0.043,-0.046,-0.0474,-0.0489,-0.0451,-0.0486,-0.0462,-0.0395,-0.0401,-0.0392,-0.0385,-0.0391,-0.0385,-0.0451,-0.0451,-0.0451,0,-0.0515,-0.0473,-0.0466,-0.0421,-0.0392,-0.0391,-0.0343,-0.0334,-0.0328,-0.0324,-0.0356,-0.039,-0.0426,-0.0414,-0.0406,-0.043,-0.0444,-0.0424,-0.0389,-0.0382,-0.0376,-0.0384,-0.0379,-0.0446,-0.0447,-0.0447,-0.0448,0,-0.0451,-0.0415,-0.0386,-0.034,-0.0307,-0.0262,-0.0242,-0.0225,-0.0237,-0.0236,-0.0235,-0.0283,-0.0303,-0.0312,-0.035,-0.0321,-0.0348,-0.0382,-0.0407,-0.036,-0.0372,-0.0368,-0.0439,-0.0441,-0.0442,-0.0444,0,0,-0.0438,-0.0361,-0.0352,-0.0318,-0.0262,-0.0228,-0.0183,-0.0142,-0.0118,-0.0128,-0.0101,-0.0137,-0.0169,-0.0187,-0.023,-0.023,-0.0208,-0.0282,-0.0284,-0.0277,-0.0219,-0.0233,-0.0231,-0.0237,-0.0236,-0.0235,-0.0241,0,-0.0392,-0.0308,-0.0279,-0.0197,-0.0149,-0.0128,-0.0087,-0.0055,-0.0048,-0.0025,-0.0056,-0.0059,-0.0118,-0.0132,-0.0138,-0.0193,-0.0195,-0.0203,-0.0274,-0.0276,-0.0286,-0.0226,-0.0192,-0.0194,-0.0237,-0.0237,-0.0237,0,-0.0341,-0.0291,-0.0209,-0.0131,-0.0109,-0.0065,-0.0004,0.0035,0.007,0.007,0.0075,0.0043,0.0043,-0.0024,-0.0067,-0.0071,-0.0134,-0.0176,-0.0178,-0.022,-0.0283,-0.0251,-0.0187,-0.0305,-0.0231,-0.0232,-0.0232,0,-0.0336,-0.0243,-0.0182,-0.0151,-0.0064,-0.0031,0.0009,0.0059,0.0096,0.013,0.0155,0.0141,0.013,0.007,-0.0019,-0.0045,-0.0066,-0.012,-0.0188,-0.019,-0.0189,-0.0192,-0.0237,-0.0149,-0.0149,-0.0149,-0.0149,0,-0.0295,-0.0238,-0.018,-0.0137,-0.0072,-0.002,0.005,0.0087,0.0146,0.0209,0.0195,0.0236,0.0151,0.0126,0.0032,-0.005,-0.0031,-0.0155,-0.0183,-0.0155,-0.0156,-0.0284,-0.0369,-0.0149,-0.0149,-0.0149,-0.0149,0,-0.0272,-0.0235,-0.0159,-0.0082,-0.0061,-0.0015,0.0075,0.013,0.0178,0.0264,0.0278,0.0308,0.0291,0.0208,0.0119,0.0015,-0.0121,-0.011,-0.0068,-0.0091,-0.0276,-0.0356,-0.0413,-0.0442,-0.0178,-0.0178,-0.0178,0,-0.0244,-0.0207,-0.0133,-0.0096,-0.0055,0.0011,0.0066,0.0132,0.0204,0.0316,0.0368,0.0384,0.044,0.0322,0.0151,0.0016,-0.0109,-0.0089,-0.0138,-0.0258,-0.0369,-0.0407,-0.0431,-0.0099,-0.0099,-0.0098,-0.0098,0,-0.0194,-0.018,-0.0128,-0.0056,-0.0001,0.0079,0.0167,0.0229,0.033,0.0425,0.0562,0.0623,0.0523,0.0445,0.0235,0.0102,-0.0152,-0.0089,-0.0216,-0.0303,-0.0342,-0.0393,-0.0132,-0.0095,-0.0095,-0.0095,-0.0095,-0.0095,-0.017,-0.0136,-0.0081,-0.0006,0.0063,0.0177,0.0277,0.0388,0.0534,0.0748,0.074,0.0912,0.0718,0.0467,0.0245,-0.0132,-0.0142,-0.0242,-0.0325,-0.035,-0.0385,-0.0116,-0.0115,-0.0116,-0.0116,-0.0116,-0.0117,0,-0.0135,-0.0092,-0.0024,0.0083,0.0194,0.0219,0.0377,0.0518,0.0734,0.0917,0.1078,0.1121,0.0869,0.0538,0.0028,-0.0286,-0.039,-0.0462,-0.0511,-0.0522,-0.0279,-0.0283,-0.0313,-0.0313,-0.0313,-0.0313,-0.0313,-0.0313,-0.011,-0.0049,-0.0005,0.0186,0.0281,0.0467,0.0582,0.0787,0.0965,0.1266,0.1421,0.1492,0.124,0.0315,-0.0333,-0.0508,-0.0705,-0.0762,-0.0858,-0.0717,-0.0703,-0.0689,-0.0712,-0.0831,-0.0832,-0.1024,-0.1027,-0.1029]}],[{"header":{"parameterUnit":"m.s-1","parameterCategory":2,"la1":30.2991,"la2":30.254,"lo1":-89.0895,"lo2":-89.0444,"dy":0.0017,"dx":0.0017,"nx":28,"ny":28,"refTime":"2025-07-30T21:00:00:Z","depth":"2","parameterNumber":2,"parameterNumberName":"U-component_of_CURRENTS"},"data":[0,0,0,0,0,0,0,0,0,0,0,0,0,0,0,0,0,0,0,0,0,0,0,0,0,0,0,0,0,0,0,0,0,0,0,0,0,0,0,0,0,0,0,0,0,0,0,0,0,0,0,0,0,0,0,0,0,0,0.0776,0.0779,0,0.0983,0.0984,0.0986,0.1064,0.1065,0.1065,0.1066,0.1045,0.1044,0.1043,0,0,0,0,0,0,0,0,0,0,0,0,0,0.0432,0.0436,0.0775,0.0779,0.0783,0.0983,0.0984,0.0986,0.1064,0.1065,0.1065,0.1066,0.1045,0.1044,0.1043,0,0,0,0,0,0,0,0,0,0,0,0,0,0.0592,0.0438,0.0775,0.0855,0.0865,0.0982,0.0984,0.0987,0.1064,0.1065,0.1065,0.1066,0.1045,0.1044,0.1042,0.1019,0,0,0.1038,0.1037,0,0,0,0,0,0,0,0,0.0583,0.0603,0.0839,0.085,0.0861,0.1009,0.0857,0.099,0.1064,0.0976,0.1066,0.1066,0.1019,0.102,0.1043,0.1018,0.1017,0.1038,0.1037,0.1036,0.1036,0,0,0,0,0,0,0,0.0572,0.0595,0.0845,0.0844,0.0857,0.0876,0.0898,0.0882,0.0977,0.0983,0.0993,0.1035,0.1022,0.1045,0.1043,0.1016,0.1038,0.1036,0.1035,0.1035,0.106,0.1062,0,0,0,0,0,0,0.0572,0.0585,0.0839,0.0853,0.0735,0.0883,0.0907,0.0951,0.0982,0.0994,0.1034,0.1038,0.1047,0.1044,0.1042,0.1091,0.1036,0.1035,0.1034,0.1059,0.1061,0.1063,0,0,0,0,0,0,0.0563,0.0592,0.0831,0.0732,0.0766,0.0889,0.0937,0.0955,0.1036,0.1026,0.103,0.1105,0.1047,0.1044,0.1047,0.1087,0.1034,0.1033,0.1057,0.1059,0.1062,0.1139,0,0,0,0,0,0,0.0553,0.0588,0.0623,0.0733,0.0772,0.0903,0.0938,0.0959,0.1064,0.1072,0.1086,0.1083,0.1048,0.1049,0.1045,0.1084,0.1031,0.1055,0.1058,0.1061,0.1134,0.1143,0.1151,0,0,0,0,0,0.0539,0.0597,0.0623,0.0655,0.0815,0.0905,0.0925,0.1006,0.1067,0.1085,0.1101,0.1085,0.1066,0.1048,0.1044,0.1083,0.1054,0.1057,0.1061,0.113,0.1141,0.1151,0,0,0,0,0,0,0.0483,0.0615,0.0645,0.0744,0.0816,0.0923,0.0987,0.1043,0.1081,0.1106,0.1091,0.1086,0.1106,0.1085,0.1067,0.1101,0.1064,0.1066,0.1118,0.1128,0.1137,0.112,0.103,0,0,0,0,0,0.0483,0.0553,0.0662,0.074,0.0793,0.0898,0.0958,0.1011,0.1067,0.1093,0.1088,0.1099,0.1111,0.1113,0.1097,0.1111,0.1124,0.1138,0.1147,0.1154,0.1139,0.1219,0.1234,0.1074,0.1074,0.1074,0,0,0.0487,0.0571,0.0613,0.0731,0.0814,0.0867,0.0935,0.1045,0.107,0.1076,0.1101,0.1122,0.1121,0.1131,0.1141,0.1123,0.121,0.1159,0.1165,0.1145,0.1225,0.124,0.1254,0.1077,0.1076,0.1076,0,0,0.0541,0.0609,0.069,0.0735,0.0862,0.0896,0.0939,0.1044,0.1077,0.1103,0.113,0.1168,0.1165,0.1171,0.1181,0.1229,0.1252,0.1254,0.1284,0.1364,0.1378,0.139,0.1441,0.1457,0.1261,0.1261,0.1262,0,0.0547,0.064,0.0722,0.0793,0.0832,0.0912,0.0971,0.1004,0.1076,0.1106,0.1108,0.1182,0.1174,0.1232,0.1249,0.1246,0.13,0.1247,0.1377,0.1389,0.14,0.1449,0.1465,0.1266,0.1265,0.1265,0.1264,0,0.0632,0.0701,0.0757,0.0843,0.0886,0.0947,0.0997,0.1031,0.1079,0.1112,0.1183,0.1192,0.1246,0.1265,0.1267,0.1364,0.138,0.138,0.1351,0.1421,0.1468,0.1484,0.1271,0.127,0.1269,0.1268,0,0,0.0686,0.0789,0.0811,0.0847,0.0908,0.0963,0.0989,0.1045,0.1111,0.1136,0.122,0.1245,0.1304,0.1318,0.1359,0.1416,0.1541,0.1445,0.1447,0.1495,0.1731,0.1705,0.172,0.1598,0.1601,0.1603,0.1737,0,0.0732,0.0827,0.0863,0.0929,0.0985,0.1011,0.103,0.1083,0.1126,0.1198,0.1249,0.1331,0.1312,0.1394,0.1444,0.1526,0.1587,0.1504,0.1653,0.1656,0.1627,0.1738,0.1488,0.1584,0.1752,0.1755,0.1757,0,0.0798,0.0862,0.0926,0.0987,0.1021,0.1052,0.1123,0.1153,0.1239,0.1289,0.1373,0.1426,0.1519,0.1506,0.1646,0.1616,0.1675,0.1715,0.1722,0.1674,0.166,0.1539,0.1607,0.1783,0.1781,0.1779,0.1777,0,0.0811,0.0894,0.0934,0.0949,0.1035,0.1086,0.1126,0.1206,0.1257,0.1382,0.146,0.1551,0.1657,0.172,0.1798,0.1759,0.1956,0.1908,0.1924,0.1922,0.1717,0.1693,0.2007,0.2007,0.2006,0.2006,0.2006,0,0.0828,0.0899,0.0953,0.1009,0.107,0.113,0.1221,0.128,0.1385,0.1478,0.1538,0.1654,0.1732,0.1843,0.1863,0.196,0.2016,0.1945,0.1969,0.1738,0.1715,0.1879,0.1862,0.2011,0.201,0.2009,0.2008,0,0.0887,0.0902,0.0986,0.1074,0.1098,0.1164,0.1265,0.1331,0.1443,0.1576,0.1633,0.1782,0.1958,0.2009,0.2149,0.2075,0.2141,0.2161,0.1873,0.186,0.2025,0.201,0.2168,0.2169,0.2169,0.217,0.217,0,0.0912,0.0962,0.1038,0.106,0.1121,0.1203,0.1254,0.1355,0.1432,0.1658,0.1733,0.1956,0.2088,0.2252,0.2142,0.2153,0.2277,0.1986,0.1837,0.2041,0.2049,0.2033,0.2019,0.1597,0.1592,0.1589,0.1586,0,0.0974,0.1006,0.105,0.1114,0.1163,0.1231,0.1334,0.1388,0.1535,0.1662,0.1889,0.2022,0.2124,0.2046,0.2051,0.2007,0.1945,0.1915,0.2247,0.1599,0.1515,0.1518,0.152,0.1554,0.1557,0.1559,0.1561,0.1562,0.0981,0.1001,0.1041,0.1127,0.1181,0.1289,0.1338,0.1452,0.1588,0.1775,0.1918,0.2007,0.1844,0.1722,0.1706,0.1685,0.1766,0.1687,0.1693,0.1703,0.1618,0.154,0.1566,0.1569,0.1572,0.1574,0.1576,0,0.0929,0.099,0.1049,0.1119,0.1214,0.128,0.1396,0.1434,0.1584,0.1703,0.1871,0.1551,0.1479,0.1473,0.1309,0.125,0.1159,0.1315,0.1182,0.1211,0.1238,0.1125,0.0945,0.0945,0.0944,0.0944,0,0,0.0889,0.092,0.0995,0.1142,0.1229,0.1318,0.1392,0.1465,0.1512,0.1551,0.1519,0.1466,0.1351,0.107,0.1009,0.104,0.1142,0.1002,0.1484,0.1356,0.1384,0.1402,0.1256,0,0,0,0,0]},{"header":{"parameterUnit":"m.s-1","parameterCategory":2,"la1":30.2991,"la2":30.254,"lo1":-89.0895,"lo2":-89.0444,"dy":0.0017,"dx":0.0017,"nx":28,"ny":28,"refTime":"2025-07-30T21:00:00:Z","depth":"2","parameterNumber":3,"parameterNumberName":"V-component_of_CURRENTS"},"data":[0,0,0,0,0,0,0,0,0,0,0,0,0,0,0,0,0,0,0,0,0,0,0,0,0,0,0,0,0,0,0,0,0,0,0,0,0,0,0,0,0,0,0,0,0,0,0,0,0,0,0,0,0,0,0,0,0,0,0.0087,0.0085,0,-0.005,-0.0052,-0.0054,-0.0141,-0.0141,-0.0142,-0.0142,-0.0285,-0.0288,-0.0291,0,0,0,0,0,0,0,0,0,0,0,0,0,0.0233,0.0231,0.0087,0.0085,0.0084,-0.005,-0.0052,-0.0054,-0.0141,-0.0141,-0.0142,-0.0142,-0.0284,-0.0288,-0.0292,0,0,0,0,0,0,0,0,0,0,0,0,0,0.0139,0.023,0.0087,0.0025,0.0018,-0.005,-0.0052,-0.0055,-0.0141,-0.0141,-0.0142,-0.0142,-0.0282,-0.0287,-0.0292,-0.0312,0,0,-0.0308,-0.031,0,0,0,0,0,0,0,0,0.0145,0.0134,0.0036,0.0029,0.0021,-0.0078,-0.0053,-0.0141,-0.014,-0.0081,-0.0142,-0.0143,-0.0215,-0.0226,-0.0252,-0.0318,-0.0325,-0.0308,-0.0312,-0.0314,-0.0315,0,0,0,0,0,0,0,0.0151,0.0139,0.0031,0.0034,0.0025,-0.001,-0.0024,-0.007,-0.0144,-0.0087,-0.0093,-0.0106,-0.0219,-0.0246,-0.0256,-0.0327,-0.0308,-0.0313,-0.0316,-0.0318,-0.0458,-0.0459,0,0,0,0,0,0,0.0173,0.0145,0.0036,0.0027,0.0084,-0.0012,-0.0027,-0.0046,-0.0144,-0.0159,-0.0106,-0.011,-0.0237,-0.0249,-0.0261,-0.0298,-0.0314,-0.0319,-0.0321,-0.0458,-0.0458,-0.0459,0,0,0,0,0,0,0.0176,0.0164,0.0041,0.0084,0.0066,-0.0013,-0.0034,-0.0049,-0.0097,-0.0158,-0.0173,-0.0141,-0.0238,-0.0254,-0.0314,-0.0304,-0.0321,-0.0326,-0.0457,-0.0458,-0.0459,-0.0367,0,0,0,0,0,0,0.0181,0.0166,0.0144,0.0086,0.0065,0.0021,-0.0034,-0.0051,-0.0102,-0.011,-0.0193,-0.0206,-0.024,-0.0306,-0.0319,-0.0311,-0.033,-0.0456,-0.0457,-0.0458,-0.0369,-0.0365,-0.0361,0,0,0,0,0,0.0187,0.0167,0.0144,0.013,0.0042,0.0022,0.0009,-0.0051,-0.0103,-0.0103,-0.0179,-0.0204,-0.0323,-0.0311,-0.0326,-0.0319,-0.0455,-0.0457,-0.0458,-0.0371,-0.0366,-0.0361,0,0,0,0,0,0,0.0218,0.0154,0.0128,0.0088,0.0067,0.0008,-0.0021,-0.006,-0.0124,-0.0147,-0.0216,-0.0233,-0.0283,-0.0322,-0.0307,-0.0367,-0.0392,-0.0397,-0.0321,-0.0317,-0.0312,-0.0263,-0.0334,0,0,0,0,0,0.0217,0.0182,0.014,0.011,0.0092,0.003,0.0002,-0.0024,-0.0082,-0.0113,-0.0171,-0.0241,-0.0298,-0.0324,-0.0375,-0.0407,-0.0438,-0.0415,-0.0411,-0.0407,-0.0379,-0.0451,-0.045,-0.0464,-0.0464,-0.0464,0,0,0.0218,0.018,0.0157,0.0114,0.0074,0.0075,0.0011,-0.0019,-0.0017,-0.0117,-0.0158,-0.0233,-0.0308,-0.0343,-0.0367,-0.0373,-0.0415,-0.0409,-0.0404,-0.0378,-0.0452,-0.0451,-0.0449,-0.0465,-0.0465,-0.0464,0,0,0.0222,0.0172,0.0149,0.0143,0.0104,0.0086,0.008,0.0026,-0.0002,-0.0036,-0.0121,-0.0188,-0.0263,-0.0311,-0.0348,-0.0356,-0.0398,-0.0381,-0.0308,-0.0379,-0.0377,-0.0376,-0.0386,-0.0387,-0.0369,-0.0369,-0.0369,0,0.0228,0.0201,0.0147,0.0145,0.0145,0.0097,0.011,0.0085,0.0025,0.0007,-0.003,-0.017,-0.024,-0.0291,-0.0293,-0.0341,-0.0373,-0.0316,-0.037,-0.037,-0.0371,-0.0382,-0.0384,-0.0365,-0.0366,-0.0366,-0.0366,0,0.0238,0.0217,0.0209,0.0195,0.0193,0.0201,0.0182,0.0172,0.0129,0.0101,0.0037,-0.0065,-0.0139,-0.0182,-0.0238,-0.0281,-0.0298,-0.0361,-0.0371,-0.0363,-0.0376,-0.0379,-0.0359,-0.036,-0.0362,-0.0363,0,0,0.0254,0.0223,0.0225,0.0234,0.0227,0.0239,0.0248,0.0251,0.0256,0.0191,0.018,0.0065,0.0001,-0.0046,-0.014,-0.0199,-0.0236,-0.027,-0.0276,-0.0256,-0.0349,-0.032,-0.0321,-0.0318,-0.0318,-0.0319,-0.0345,0,0.0284,0.0309,0.0283,0.0324,0.0334,0.0321,0.0343,0.0341,0.0319,0.0304,0.0202,0.0147,0.0056,0.0008,-0.0062,-0.0203,-0.0246,-0.0219,-0.0379,-0.0382,-0.034,-0.0326,-0.0318,-0.0338,-0.0349,-0.035,-0.035,0,0.031,0.0323,0.0362,0.0391,0.0395,0.0417,0.0456,0.0471,0.0447,0.0423,0.0363,0.0281,0.0191,0.0098,-0.0079,-0.0061,-0.0183,-0.0285,-0.0291,-0.0293,-0.036,-0.0358,-0.0345,-0.0357,-0.0356,-0.0356,-0.0355,0,0.0356,0.0387,0.0425,0.0438,0.0458,0.047,0.0491,0.0492,0.0509,0.0487,0.0488,0.0379,0.0312,0.0151,-0.004,-0.0071,-0.0227,-0.0305,-0.0378,-0.0376,-0.0411,-0.041,-0.0423,-0.0423,-0.0423,-0.0423,-0.0423,0,0.0406,0.0423,0.0448,0.046,0.0518,0.0517,0.0561,0.0574,0.0582,0.0611,0.0538,0.0536,0.0312,0.0199,0.0016,-0.0162,-0.0184,-0.0339,-0.0384,-0.0376,-0.0372,-0.0435,-0.0436,-0.0424,-0.0424,-0.0423,-0.0423,0,0.041,0.0432,0.0464,0.0504,0.0518,0.0556,0.0597,0.0632,0.0648,0.0683,0.0677,0.0634,0.0512,0.0313,0.0066,-0.008,-0.0267,-0.0333,-0.0267,-0.0303,-0.0375,-0.0371,-0.04,-0.0399,-0.0399,-0.0398,-0.0398,0,0.0423,0.0431,0.0485,0.0514,0.0514,0.0566,0.0596,0.0642,0.0687,0.0748,0.0771,0.0702,0.0687,0.0403,0.0119,-0.0137,-0.0222,-0.0306,-0.0373,-0.0332,-0.0375,-0.0372,-0.0369,-0.0378,-0.0377,-0.0377,-0.0377,0,0.0425,0.0424,0.0459,0.0504,0.0544,0.0612,0.0666,0.0729,0.0796,0.0869,0.096,0.0971,0.0737,0.049,0.0153,-0.0024,-0.0259,-0.0302,-0.0308,-0.0374,-0.0312,-0.0353,-0.0352,-0.0372,-0.0373,-0.0373,-0.0373,-0.0374,0.0425,0.045,0.0479,0.0515,0.0568,0.0653,0.0741,0.0834,0.0964,0.1109,0.1108,0.1093,0.0712,0.0289,0.0054,-0.018,-0.0195,-0.0346,-0.0348,-0.0351,-0.0333,-0.0273,-0.0319,-0.0319,-0.0319,-0.0319,-0.0319,0,0.0447,0.0443,0.0487,0.0568,0.0626,0.0644,0.0784,0.0917,0.1111,0.116,0.1276,0.0903,0.0641,0.0282,-0.0053,-0.0267,-0.0285,-0.0336,-0.0355,-0.0358,-0.0361,-0.0345,-0.0333,-0.0333,-0.0334,-0.0334,0,0,0.0461,0.0481,0.0492,0.0589,0.0645,0.0788,0.0887,0.1091,0.1164,0.1272,0.1192,0.1054,0.0574,0.0251,-0.0022,-0.0148,-0.0187,-0.0161,-0.0132,-0.0123,-0.0122,-0.0353,-0.0329,0,0,0,0,0]}],[{"header":{"parameterUnit":"m.s-1","parameterCategory":2,"la1":30.2991,"la2":30.254,"lo1":-89.0895,"lo2":-89.0444,"dy":0.0017,"dx":0.0017,"nx":28,"ny":28,"refTime":"2025-07-30T21:00:00:Z","depth":"4","parameterNumber":2,"parameterNumberName":"U-component_of_CURRENTS"},"data":[0,0,0,0,0,0,0,0,0,0,0,0,0,0,0,0,0,0,0,0,0,0,0,0,0,0,0,0,0,0,0,0,0,0,0,0,0,0,0,0,0,0,0,0,0,0,0,0,0,0,0,0,0,0,0,0,0,0,-0.0098,-0.0098,0,-0.0122,-0.0122,-0.0122,-0.0151,-0.0151,-0.0152,-0.0152,-0.0225,-0.0226,-0.0228,0,0,0,0,0,0,0,0,0,0,0,0,0,-0.0061,-0.0061,-0.0098,-0.0098,-0.0098,-0.0122,-0.0122,-0.0122,-0.0151,-0.0151,-0.0152,-0.0153,-0.0224,-0.0226,-0.0228,0,0,0,0,0,0,0,0,0,0,0,0,0,-0.0078,-0.0061,-0.0097,-0.0117,-0.0119,-0.0122,-0.0122,-0.0122,-0.0151,-0.0151,-0.0152,-0.0153,-0.0224,-0.0226,-0.0228,-0.0223,0,0,-0.0234,-0.0235,0,0,0,0,0,0,0,0,-0.0077,-0.008,-0.0113,-0.0115,-0.0118,-0.0135,-0.0135,-0.0159,-0.015,-0.0137,-0.0152,-0.0153,-0.02,-0.0204,-0.0204,-0.0227,-0.023,-0.0234,-0.0236,-0.0237,-0.0237,0,0,0,0,0,0,0,-0.0076,-0.0079,-0.0106,-0.0114,-0.0116,-0.0119,-0.0122,-0.014,-0.0163,-0.0138,-0.0141,-0.0145,-0.0201,-0.0201,-0.0206,-0.0231,-0.0234,-0.0236,-0.0237,-0.0238,-0.032,-0.032,0,0,0,0,0,0,-0.0076,-0.0078,-0.0105,-0.0106,-0.0101,-0.0119,-0.0123,-0.0128,-0.0162,-0.0168,-0.0145,-0.0147,-0.0197,-0.0203,-0.0208,-0.0257,-0.0237,-0.0238,-0.024,-0.0319,-0.032,-0.0321,0,0,0,0,0,0,-0.0075,-0.0078,-0.0104,-0.0094,-0.0097,-0.0119,-0.0124,-0.0128,-0.0154,-0.0166,-0.0173,-0.017,-0.0198,-0.0206,-0.0226,-0.0259,-0.0239,-0.0241,-0.0318,-0.0319,-0.032,-0.0322,0,0,0,0,0,0,-0.0074,-0.0078,-0.0082,-0.0094,-0.0098,-0.0116,-0.0123,-0.0128,-0.0154,-0.0158,-0.019,-0.0196,-0.02,-0.0223,-0.0228,-0.0261,-0.0243,-0.0316,-0.0318,-0.032,-0.0321,-0.0323,-0.0325,0,0,0,0,0,-0.0073,-0.0078,-0.0082,-0.0086,-0.0103,-0.0117,-0.0119,-0.0136,-0.0155,-0.0164,-0.0177,-0.0196,-0.0239,-0.0224,-0.0231,-0.0265,-0.0316,-0.0318,-0.032,-0.032,-0.0323,-0.0325,0,0,0,0,0,0,-0.0068,-0.0082,-0.0087,-0.0098,-0.0111,-0.0123,-0.0133,-0.015,-0.0168,-0.0183,-0.0194,-0.02,-0.0235,-0.0247,-0.0231,-0.0295,-0.0287,-0.029,-0.0285,-0.0288,-0.029,-0.0283,-0.0245,0,0,0,0,0,-0.0067,-0.0071,-0.0089,-0.0095,-0.0106,-0.0125,-0.0135,-0.0155,-0.017,-0.0181,-0.0198,-0.0224,-0.0244,-0.0262,-0.0279,-0.0307,-0.0296,-0.0339,-0.0341,-0.0343,-0.0342,-0.0349,-0.0351,-0.0328,-0.0328,-0.0328,0,0,-0.0066,-0.0073,-0.0077,-0.0093,-0.0106,-0.0121,-0.0134,-0.0163,-0.0174,-0.0186,-0.0209,-0.0232,-0.0252,-0.0279,-0.0298,-0.0296,-0.034,-0.0345,-0.0346,-0.0345,-0.0351,-0.0353,-0.0355,-0.0329,-0.0329,-0.0328,0,0,-0.006,-0.0077,-0.0078,-0.0094,-0.0121,-0.0133,-0.0149,-0.0178,-0.0191,-0.0213,-0.0227,-0.0255,-0.0292,-0.0301,-0.0314,-0.034,-0.0349,-0.0372,-0.0381,-0.0388,-0.0389,-0.0391,-0.0355,-0.0353,-0.0376,-0.0376,-0.0376,0,-0.0061,-0.0064,-0.0081,-0.0092,-0.0109,-0.0143,-0.016,-0.0171,-0.0201,-0.0208,-0.0226,-0.0274,-0.0297,-0.0318,-0.0335,-0.0345,-0.0342,-0.0366,-0.0389,-0.039,-0.0392,-0.0355,-0.0353,-0.0377,-0.0377,-0.0376,-0.0376,0,-0.0056,-0.0066,-0.0074,-0.0093,-0.0114,-0.0139,-0.0164,-0.0186,-0.0216,-0.0224,-0.0259,-0.0281,-0.0311,-0.0335,-0.0348,-0.038,-0.037,-0.0386,-0.0377,-0.0394,-0.0354,-0.0352,-0.0377,-0.0377,-0.0377,-0.0377,0,0,-0.0049,-0.0065,-0.007,-0.0078,-0.0125,-0.014,-0.0165,-0.0185,-0.0197,-0.0233,-0.0242,-0.029,-0.0316,-0.0332,-0.0359,-0.0376,-0.038,-0.0399,-0.0399,-0.0353,-0.0374,-0.0288,-0.0277,-0.0412,-0.0412,-0.0412,-0.0333,0,-0.0044,-0.0046,-0.0067,-0.0087,-0.01,-0.0143,-0.0156,-0.0183,-0.0207,-0.0219,-0.025,-0.0271,-0.031,-0.0338,-0.0362,-0.0379,-0.038,-0.0399,-0.0374,-0.0372,-0.0286,-0.0274,-0.0414,-0.0331,-0.033,-0.033,-0.033,0,-0.0044,-0.0043,-0.0057,-0.0079,-0.0091,-0.0117,-0.0155,-0.017,-0.0194,-0.0211,-0.0244,-0.0264,-0.0294,-0.0328,-0.0349,-0.0367,-0.0376,-0.0381,-0.0378,-0.0297,-0.0283,-0.0319,-0.0326,-0.0326,-0.0326,-0.0326,-0.0327,0,-0.0029,-0.0042,-0.0048,-0.0062,-0.0095,-0.0119,-0.0142,-0.0175,-0.0173,-0.0208,-0.0208,-0.025,-0.0259,-0.0296,-0.0307,-0.0344,-0.0305,-0.0349,-0.0263,-0.0255,-0.0356,-0.0356,-0.0353,-0.0353,-0.0353,-0.0354,-0.0354,0,-0.0024,-0.0033,-0.0043,-0.0056,-0.0069,-0.0109,-0.0127,-0.0153,-0.017,-0.0149,-0.0206,-0.0194,-0.026,-0.0244,-0.028,-0.0238,-0.0276,-0.0248,-0.0232,-0.0355,-0.0356,-0.0352,-0.0353,-0.0351,-0.0351,-0.0352,-0.0352,0,-0.0025,-0.0025,-0.0038,-0.0063,-0.0067,-0.0089,-0.0106,-0.0104,-0.0133,-0.0109,-0.0115,-0.0138,-0.0127,-0.0143,-0.0166,-0.0169,-0.0158,-0.0132,-0.0209,-0.0201,-0.0114,-0.0116,-0.0045,-0.0041,-0.0038,-0.0035,-0.0033,0,-0.0022,-0.0029,-0.0042,-0.0032,-0.0051,-0.0068,-0.0066,-0.0092,-0.0075,-0.006,-0.0033,-0.002,-0.0031,0.0031,-0.0024,-0.0024,-0.004,-0.0015,-0.0124,-0.0092,-0.0084,-0.0091,-0.0097,-0.0028,-0.0028,-0.0027,-0.0026,0,-0.0035,-0.0048,-0.0056,-0.0022,-0.0021,-0.0003,0.0001,0.0018,0.0013,0.0009,0.0063,0.0072,0.0109,0.0081,0.0111,0.0087,-0.0032,0.0015,0.0007,-0.0096,-0.0071,-0.0068,-0.0078,-0.0015,-0.0017,-0.0018,-0.0019,0,-0.0053,-0.0055,-0.0047,-0.0022,0.0014,0.0055,0.0045,0.0083,0.0096,0.0117,0.0144,0.0143,0.0137,0.0144,0.0157,0.0165,0.0125,0.0102,0.0087,0.0075,0.0071,0.0117,0.026,0,0,0,0,0,-0.0063,-0.0055,-0.003,0.0007,0.0058,0.0075,0.0103,0.0096,0.0104,0.0166,0.0158,0.0192,0.0211,0.0194,0.0217,0.0175,0.0108,0.0202,0.007,0.0044,0.0031,0.0011,0,0,0,0,0,0,-0.0067,-0.0056,-0.0038,0.0041,0.008,0.013,0.0141,0.0142,0.0173,0.0183,0.0187,0.0208,0.0209,0.0203,0.0221,0.022,0.0142,0.0205,0.0206,0.0051,0.0039,0.0029,0.0005,0,0,0,0,0]},{"header":{"parameterUnit":"m.s-1","parameterCategory":2,"la1":30.2991,"la2":30.254,"lo1":-89.0895,"lo2":-89.0444,"dy":0.0017,"dx":0.0017,"nx":28,"ny":28,"refTime":"2025-07-30T21:00:00:Z","depth":"4","parameterNumber":3,"parameterNumberName":"V-component_of_CURRENTS"},"data":[0,0,0,0,0,0,0,0,0,0,0,0,0,0,0,0,0,0,0,0,0,0,0,0,0,0,0,0,0,0,0,0,0,0,0,0,0,0,0,0,0,0,0,0,0,0,0,0,0,0,0,0,0,0,0,0,0,0,0.0061,0.0061,0,0.0035,0.0035,0.0034,0.0035,0.0036,0.0036,0.0037,-0.002,-0.0022,-0.0024,0,0,0,0,0,0,0,0,0,0,0,0,0,0.0101,0.01,0.0061,0.0061,0.0061,0.0035,0.0035,0.0034,0.0035,0.0036,0.0037,0.0037,-0.002,-0.0022,-0.0024,0,0,0,0,0,0,0,0,0,0,0,0,0,0.0079,0.01,0.0061,0.0059,0.0059,0.0035,0.0035,0.0034,0.0035,0.0036,0.0037,0.0037,-0.0019,-0.0022,-0.0025,-0.0058,0,0,-0.0034,-0.0035,0,0,0,0,0,0,0,0,0.008,0.0077,0.006,0.0059,0.0059,0.004,0.0028,0.0002,0.0035,0.0043,0.0037,0.0038,-0.0003,-0.0007,-0.0015,-0.0061,-0.0063,-0.0034,-0.0036,-0.0037,-0.0038,0,0,0,0,0,0,0,0.0082,0.0079,0.0049,0.0059,0.0059,0.0056,0.0054,0.0023,0.0015,0.0042,0.0043,0.0042,-0.0003,-0.0012,-0.0016,-0.0064,-0.0034,-0.0037,-0.0038,-0.004,-0.0132,-0.0133,0,0,0,0,0,0,0.0087,0.008,0.005,0.0049,0.0073,0.0055,0.0052,0.0044,0.0016,0.0013,0.0041,0.0042,-0.0007,-0.0013,-0.0018,-0.0053,-0.0037,-0.004,-0.0042,-0.0132,-0.0133,-0.0133,0,0,0,0,0,0,0.0088,0.0085,0.0051,0.0065,0.0061,0.0054,0.0045,0.0044,0.0036,0.0015,0.0012,0.0035,-0.0007,-0.0014,-0.0057,-0.0056,-0.0041,-0.0044,-0.0131,-0.0132,-0.0133,-0.0127,0,0,0,0,0,0,0.0089,0.0085,0.0081,0.0065,0.0061,0.0034,0.0044,0.0043,0.0035,0.0036,0.0009,0.0004,-0.0007,-0.0052,-0.006,-0.0059,-0.0046,-0.013,-0.0131,-0.0133,-0.0127,-0.0128,-0.0129,0,0,0,0,0,0.0091,0.0086,0.0081,0.0077,0.0055,0.0034,0.0031,0.0028,0.0034,0.0024,0.0001,0.0005,-0.0065,-0.0056,-0.0064,-0.0065,-0.0129,-0.0131,-0.0132,-0.0126,-0.0128,-0.0129,0,0,0,0,0,0,0.0107,0.0085,0.0079,0.007,0.0051,0.0035,0.0033,0.0025,-0.0,0.0001,-0.0017,-0.0024,-0.0059,-0.0069,-0.0059,-0.0095,-0.0091,-0.0095,-0.0084,-0.0086,-0.0087,-0.0084,-0.0049,0,0,0,0,0,0.0106,0.0094,0.0073,0.0065,0.0059,0.0043,0.0036,0.0027,0.0005,-0.0004,-0.0029,-0.005,-0.0073,-0.0085,-0.0113,-0.014,-0.0147,-0.0142,-0.0144,-0.0145,-0.0149,-0.0166,-0.0169,-0.0138,-0.0138,-0.0138,0,0,0.0111,0.0098,0.0092,0.0067,0.0057,0.0033,0.004,0.0025,-0.0,-0.0009,-0.0051,-0.0065,-0.0084,-0.0114,-0.0128,-0.012,-0.0156,-0.0146,-0.0147,-0.0151,-0.0168,-0.0171,-0.0174,-0.0139,-0.0139,-0.0139,0,0,0.0112,0.0103,0.0091,0.007,0.0049,0.0031,0.0025,-0.0003,-0.0016,-0.0059,-0.0066,-0.0087,-0.0127,-0.014,-0.0148,-0.0177,-0.0169,-0.0172,-0.0171,-0.0188,-0.019,-0.0192,-0.0199,-0.0201,-0.0165,-0.0165,-0.0165,0,0.0117,0.0097,0.0085,0.0063,0.0045,0.0029,0.0003,-0.0018,-0.0062,-0.0078,-0.0073,-0.0126,-0.0141,-0.0168,-0.0167,-0.018,-0.018,-0.016,-0.0188,-0.0191,-0.0193,-0.0199,-0.0202,-0.0165,-0.0165,-0.0165,-0.0165,0,0.0102,0.0083,0.0077,0.0038,0.0014,-0.0007,-0.0042,-0.007,-0.0085,-0.0107,-0.0141,-0.0161,-0.0183,-0.0184,-0.0181,-0.0199,-0.019,-0.0192,-0.0181,-0.0196,-0.0201,-0.0204,-0.0165,-0.0165,-0.0165,-0.0165,0,0,0.011,0.0074,0.0069,0.0048,-0.0002,-0.0024,-0.0068,-0.011,-0.0133,-0.0163,-0.0189,-0.0212,-0.0204,-0.0213,-0.0208,-0.0214,-0.0224,-0.0199,-0.02,-0.0198,-0.0247,-0.0243,-0.0246,-0.0221,-0.0222,-0.0223,-0.0241,0,0.0098,0.0068,0.0041,-0.0005,-0.0026,-0.0064,-0.0105,-0.0147,-0.0173,-0.0206,-0.0213,-0.0234,-0.0219,-0.0212,-0.022,-0.0227,-0.0233,-0.0218,-0.0239,-0.024,-0.0229,-0.0251,-0.0225,-0.0244,-0.0244,-0.0245,-0.0245,0,0.0078,0.0064,0.003,-0.0024,-0.0038,-0.0073,-0.0133,-0.0169,-0.0215,-0.0229,-0.0243,-0.0249,-0.0258,-0.0242,-0.026,-0.0245,-0.0244,-0.0249,-0.025,-0.0252,-0.0243,-0.0229,-0.0252,-0.0251,-0.0251,-0.025,-0.025,0,0.0089,0.0043,0.0021,0.0002,-0.0056,-0.0083,-0.0116,-0.0171,-0.0198,-0.023,-0.0241,-0.0263,-0.0261,-0.0273,-0.0271,-0.0261,-0.0293,-0.0288,-0.029,-0.0289,-0.0287,-0.0284,-0.031,-0.031,-0.031,-0.031,-0.031,0,0.0073,0.005,0.0029,0.0015,-0.0022,-0.0067,-0.0111,-0.0145,-0.0187,-0.0211,-0.0234,-0.0248,-0.0265,-0.0283,-0.0284,-0.0295,-0.0305,-0.0297,-0.0299,-0.0284,-0.0281,-0.0289,-0.0286,-0.0311,-0.031,-0.031,-0.031,0,0.007,0.0059,0.0033,-0.0004,-0.0018,-0.0042,-0.0099,-0.0129,-0.016,-0.019,-0.0192,-0.0234,-0.0253,-0.0279,-0.0303,-0.0308,-0.0325,-0.0327,-0.0306,-0.0305,-0.0305,-0.0302,-0.0336,-0.0336,-0.0336,-0.0336,-0.0337,0,0.006,0.0056,0.0035,0.0026,0.0007,-0.0027,-0.0057,-0.0106,-0.0129,-0.0177,-0.0185,-0.0219,-0.0243,-0.0277,-0.0305,-0.033,-0.0328,-0.0338,-0.0326,-0.0312,-0.031,-0.0307,-0.0304,-0.0337,-0.0337,-0.0337,-0.0337,0,0.0046,0.0051,0.0037,0.0038,0.0014,-0.0027,-0.006,-0.0072,-0.0121,-0.0144,-0.0171,-0.0203,-0.0236,-0.0269,-0.0293,-0.0309,-0.0335,-0.0339,-0.0339,-0.0327,-0.0313,-0.031,-0.0307,-0.0337,-0.0337,-0.0337,-0.0337,0,0.0036,0.0032,0.0039,0.0034,0.002,-0.0012,-0.0046,-0.0074,-0.0103,-0.014,-0.0146,-0.0191,-0.0217,-0.0258,-0.028,-0.03,-0.0301,-0.03,-0.0302,-0.0302,-0.0287,-0.0264,-0.0281,0,0,0,0,0,0.0033,0.0037,0.0031,0.0014,0.0012,0.0007,-0.0039,-0.0072,-0.01,-0.011,-0.0127,-0.0154,-0.0203,-0.0233,-0.0251,-0.0285,-0.031,-0.0308,-0.0311,-0.034,-0.0339,-0.0328,0,0,0,0,0,0,0.0017,0.0028,0.003,0.0025,0.0028,-0.0003,-0.002,-0.0058,-0.0066,-0.0086,-0.011,-0.0135,-0.0182,-0.0171,-0.0235,-0.0248,-0.025,-0.0334,-0.0335,-0.034,-0.0339,-0.0339,-0.0327,0,0,0,0,0]}]]